FW9116 Weather Reports


Display with metric or nautical units.
time (UTC)temp
F
wind
direction
speed
MPH
gust
MPH
rain 1hr
in
rain 24hr
in
rain mn
in
humidity
%
barometer
mb
20260902220555 59 186 3.0 12.0 0.00 0.35 0.35 91 1006.3
20260902220107 59 194 5.0 12.0 0.00 0.35 0.35 92 1006.2
20260902215554 59 242 3.0 10.0 0.00 0.35 0.35 92 1006.2
20260902215056 59 213 2.0 7.0 0.00 0.35 0.35 93 1006.3
20260902214625 59 155 3.0 7.0 0.00 0.35 0.35 93 1006.2
20260902214055 59 0 1.0 5.0 0.00 0.35 0.35 93 1006.1
20260902213555 59 0 1.0 8.0 0.00 0.35 0.35 93 1006.1
20260902213100 59 192 1.0 8.0 0.00 0.35 0.35 93 1006.2
20260902212554 59 144 2.0 6.0 0.01 0.35 0.35 93 1006.1
20260902212054 59 186 1.0 6.0 0.01 0.35 0.35 93 1006.2
20260902211558 59 208 2.0 6.0 0.02 0.35 0.35 93 1006.2
20260902211057 59 150 1.0 6.0 0.03 0.35 0.35 93 1006.1
20260902210555 59 155 1.0 5.0 0.04 0.35 0.35 93 1006.1
20260902210130 59 0 2.0 5.0 0.05 0.35 0.35 93 1006.2
20260902205554 59 212 2.0 5.0 0.05 0.35 0.35 93 1006.2
20260902205056 59 178 1.0 8.0 0.07 0.35 0.35 93 1006.2
20260902204602 58 0 1.0 8.0 0.08 0.35 0.35 93 1006.1
20260902204055 58 115 4.0 8.0 0.09 0.35 0.35 93 1006.0
20260902203554 58 130 3.0 7.0 0.11 0.35 0.35 93 1006.0
20260902203105 58 112 3.0 9.0 0.12 0.35 0.35 93 1005.8
20260902202554 58 153 3.0 9.0 0.15 0.34 0.34 93 1005.8
20260902202054 58 179 3.0 8.0 0.17 0.34 0.34 93 1005.8
20260902201610 58 100 3.0 8.0 0.17 0.33 0.33 92 1005.8
20260902201057 58 140 2.0 8.0 0.17 0.32 0.32 92 1005.8
20260902200554 59 0 3.0 8.0 0.17 0.31 0.31 92 1006.0
20260902200111 59 119 4.0 7.0 0.17 0.30 0.30 92 1005.9
20260902195555 59 136 3.0 7.0 0.17 0.30 0.30 92 1005.9
20260902195054 59 82 1.0 5.0 0.16 0.28 0.28 92 1006.0
20260902194604 59 119 1.0 5.0 0.16 0.27 0.27 91 1006.1
20260902194057 58 127 2.0 5.0 0.14 0.25 0.25 91 1006.2
20260902193556 59 112 2.0 5.0 0.13 0.24 0.24 90 1006.2
20260902193100 59 154 1.0 5.0 0.12 0.22 0.22 90 1006.4
20260902192554 59 159 2.0 5.0 0.09 0.19 0.19 90 1006.6
20260902192054 59 166 1.0 5.0 0.07 0.17 0.17 90 1006.5
20260902191602 59 184 1.0 5.0 0.07 0.16 0.16 90 1006.4
20260902191054 59 187 0.0 5.0 0.07 0.15 0.15 90 1006.4
20260902190557 59 178 2.0 5.0 0.06 0.14 0.14 90 1006.3
20260902190127 59 121 2.0 6.0 0.06 0.13 0.13 90 1006.3
20260902185554 59 117 1.0 6.0 0.07 0.13 0.13 89 1006.3
20260902185054 59 148 1.0 4.0 0.07 0.12 0.12 89 1006.3
20260902184610 59 151 1.0 5.0 0.07 0.11 0.11 89 1006.4
20260902184054 59 139 2.0 5.0 0.07 0.11 0.11 89 1006.4
20260902183553 59 149 1.0 7.0 0.08 0.11 0.11 88 1006.6
20260902183101 59 182 1.0 7.0 0.08 0.10 0.10 88 1006.6
20260902182554 59 171 2.0 7.0 0.09 0.10 0.10 87 1006.8
20260902182056 59 0 2.0 7.0 0.09 0.10 0.10 87 1006.9
20260902181620 59 136 1.0 8.0 0.09 0.09 0.09 86 1006.9
20260902181056 59 186 2.0 8.0 0.08 0.08 0.08 85 1007.0
20260902180555 60 197 1.0 8.0 0.08 0.08 0.08 84 1007.0
20260902180058 60 221 1.0 7.0 0.07 0.07 0.07 84 1007.0
20260902175555 60 295 2.0 7.0 0.06 0.06 0.06 82 1007.1
20260902175055 61 205 1.0 7.0 0.05 0.05 0.05 81 1007.1
20260902174601 62 200 1.0 7.0 0.04 0.04 0.04 80 1007.0
20260902174054 62 291 0.0 4.0 0.04 0.04 0.04 79 1006.9
20260902173554 62 246 1.0 4.0 0.03 0.03 0.03 79 1006.9
20260902173102 63 292 1.0 3.0 0.02 0.02 0.02 78 1006.8
20260902172554 63 0 0.0 0.0 0.01 0.01 0.01 76 1006.8
20260902172056 63 0 0.0 0.0 0.01 0.01 0.01 76 1006.6
20260902171621 64 0 0.0 1.0 0.00 0.00 0.00 74 1006.5
20260902171055 64 0 0.0 4.0 0.00 0.00 0.00 74 1006.4
20260902170554 64 252 0.0 4.0 0.00 0.00 0.00 73 1006.3
20260902165554 64 0 0.0 4.0 0.00 0.00 0.00 72 1006.3
20260902165057 64 0 0.0 4.0 0.00 0.00 0.00 70 1006.2
20260902164604 64 183 0.0 6.0 0.00 0.00 0.00 70 1006.2
20260902164055 64 202 0.0 6.0 0.00 0.00 0.00 70 1006.2
20260902163557 63 204 2.0 6.0 0.00 0.00 0.00 69 1006.2
20260902163103 63 255 1.0 5.0 0.00 0.00 0.00 71 1006.2
20260902162558 63 0 0.0 3.0 0.00 0.00 0.00 72 1006.3
20260902162059 63 0 0.0 2.0 0.00 0.00 0.00 73 1006.2
20260902161606 63 0 0.0 2.0 0.00 0.00 0.00 73 1006.2
20260902161054 62 94 0.0 2.0 0.00 0.00 0.00 73 1006.2
20260902160554 62 94 0.0 3.0 0.00 0.00 0.00 73 1006.3
20260902155555 62 0 0.0 3.0 0.00 0.00 0.00 74 1006.4
20260902155055 62 128 0.0 3.0 0.00 0.00 0.00 74 1006.4
20260902154603 62 126 1.0 4.0 0.00 0.00 0.00 74 1006.5
20260902154055 62 126 1.0 4.0 0.00 0.00 0.00 74 1006.5
20260902153555 61 119 0.0 4.0 0.00 0.00 0.00 74 1006.6
20260902153058 61 109 1.0 6.0 0.00 0.00 0.00 74 1006.7
20260902152555 61 105 2.0 6.0 0.00 0.00 0.00 74 1006.7
20260902152058 61 118 2.0 6.0 0.00 0.00 0.00 74 1006.7
20260902151603 61 123 3.0 6.0 0.00 0.00 0.00 74 1006.8
20260902151055 61 90 2.0 6.0 0.00 0.00 0.00 75 1006.8
20260902150557 61 121 2.0 6.0 0.00 0.00 0.00 75 1006.9
20260902150058 61 109 2.0 6.0 0.00 0.00 0.00 76 1006.9
20260902145555 61 107 1.0 7.0 0.00 0.00 0.00 76 1007.0
20260902145054 60 115 3.0 7.0 0.00 0.00 0.00 76 1007.0
20260902144605 60 104 2.0 6.0 0.00 0.00 0.00 76 1007.1
20260902144055 60 123 1.0 6.0 0.00 0.00 0.00 76 1007.2
20260902143555 60 107 1.0 6.0 0.00 0.00 0.00 76 1007.2
20260902143059 60 114 2.0 7.0 0.00 0.00 0.00 76 1007.2
20260902142554 60 123 2.0 8.0 0.00 0.00 0.00 76 1007.2
20260902142055 60 107 2.0 8.0 0.00 0.00 0.00 77 1007.3
20260902141601 60 113 2.0 6.0 0.00 0.00 0.00 77 1007.2
20260902141057 60 110 1.0 6.0 0.00 0.00 0.00 77 1007.3
20260902140554 60 118 2.0 5.0 0.00 0.00 0.00 76 1007.4
20260902140059 60 82 2.0 5.0 0.00 0.00 0.00 77 1007.6
20260902135555 60 0 1.0 3.0 0.00 0.00 0.00 77 1007.6
20260902135054 60 115 1.0 3.0 0.00 0.00 0.00 77 1007.6
20260902134610 60 0 0.0 3.0 0.00 0.00 0.00 77 1007.6
20260902134054 60 125 0.0 4.0 0.00 0.00 0.00 77 1007.7
20260902133554 60 145 1.0 4.0 0.00 0.00 0.00 77 1007.7
20260902133058 60 108 1.0 2.0 0.00 0.00 0.00 76 1007.8
20260902132554 60 148 1.0 2.0 0.00 0.00 0.00 76 1007.9
20260902132054 60 148 0.0 3.0 0.00 0.00 0.00 76 1008.0
20260902131601 60 0 0.0 3.0 0.00 0.00 0.00 76 1008.0
20260902131055 60 148 0.0 2.0 0.00 0.00 0.00 76 1008.1
20260902130554 60 148 0.0 2.0 0.00 0.00 0.00 76 1008.1
20260902125555 60 0 0.0 1.0 0.00 0.00 0.00 77 1008.3
20260902125057 60 0 0.0 2.0 0.00 0.00 0.00 76 1008.3
20260902124559 60 0 0.0 2.0 0.00 0.00 0.00 77 1008.5
20260902124058 60 148 0.0 3.0 0.00 0.00 0.00 77 1008.5
20260902123555 60 0 0.0 3.0 0.00 0.00 0.00 77 1008.5
20260902123101 60 129 1.0 4.0 0.00 0.00 0.00 77 1008.5
20260902122554 60 174 0.0 5.0 0.00 0.00 0.00 77 1008.7
20260902122055 60 121 2.0 5.0 0.00 0.00 0.00 77 1008.8
20260902121602 60 194 1.0 5.0 0.00 0.00 0.00 77 1008.9
20260902121055 60 136 1.0 5.0 0.00 0.00 0.00 77 1009.0
20260902120556 60 0 2.0 5.0 0.00 0.00 0.00 77 1009.0
20260902115554 60 207 2.0 7.0 0.00 0.00 0.00 77 1009.0
20260902115054 60 0 1.0 5.0 0.00 0.00 0.00 77 1009.1
20260902114559 60 0 1.0 3.0 0.00 0.00 0.00 78 1009.2
20260902114055 60 168 0.0 4.0 0.00 0.00 0.00 78 1009.2
20260902113554 60 168 2.0 4.0 0.00 0.00 0.00 78 1009.3
20260902113105 60 0 1.0 4.0 0.00 0.00 0.00 79 1009.3
20260902112555 60 0 0.0 2.0 0.00 0.00 0.00 79 1009.5
20260902112055 60 0 0.0 0.0 0.00 0.00 0.00 79 1009.5
20260902111558 60 0 0.0 0.0 0.00 0.00 0.00 79 1009.5
20260902111055 60 0 0.0 0.0 0.00 0.00 0.00 79 1009.5
20260902110558 60 0 0.0 0.0 0.00 0.00 0.00 79 1009.5
20260902110059 60 0 0.0 2.0 0.00 0.00 0.00 79 1009.6
20260902105557 60 0 0.0 2.0 0.00 0.00 0.00 79 1009.6
20260902105054 60 157 0.0 2.0 0.00 0.00 0.00 79 1009.6
20260902104556 60 159 0.0 3.0 0.00 0.00 0.00 79 1009.7
20260902104058 60 159 0.0 4.0 0.00 0.00 0.00 79 1009.7
20260902103554 60 157 1.0 4.0 0.00 0.00 0.00 79 1009.7
20260902103103 60 141 0.0 2.0 0.00 0.00 0.00 79 1009.8
20260902102556 60 141 0.0 5.0 0.00 0.00 0.00 79 1009.8
20260902102055 60 138 1.0 5.0 0.00 0.00 0.00 79 1009.8
20260902101558 60 128 1.0 4.0 0.00 0.00 0.00 79 1009.9
20260902101054 59 196 0.0 5.0 0.00 0.00 0.00 80 1009.9
20260902100556 59 160 0.0 5.0 0.00 0.00 0.00 80 1009.8
20260902100057 59 135 1.0 5.0 0.00 0.00 0.00 80 1009.8
20260902095555 59 178 1.0 6.0 0.00 0.00 0.00 80 1010.0
20260902095056 59 0 1.0 6.0 0.00 0.00 0.00 80 1010.0
20260902094600 59 188 2.0 6.0 0.00 0.00 0.00 80 1010.0
20260902094055 59 0 2.0 6.0 0.00 0.00 0.00 80 1010.1
20260902093554 59 155 1.0 6.0 0.00 0.00 0.00 80 1010.2
20260902093104 59 202 1.0 6.0 0.00 0.00 0.00 80 1010.2
20260902092555 59 167 2.0 5.0 0.00 0.00 0.00 81 1010.3
20260902092056 59 171 1.0 5.0 0.00 0.00 0.00 80 1010.4
20260902091605 59 175 2.0 5.0 0.00 0.00 0.00 81 1010.5
20260902091054 59 199 2.0 6.0 0.00 0.00 0.00 81 1010.5
20260902090559 59 182 1.0 6.0 0.00 0.00 0.00 81 1010.6
20260902090059 59 179 1.0 5.0 0.00 0.00 0.00 82 1010.5
20260902085556 59 195 1.0 6.0 0.00 0.00 0.00 81 1010.7
20260902085055 59 0 1.0 6.0 0.00 0.00 0.00 81 1010.7
20260902084609 60 147 1.0 5.0 0.00 0.00 0.00 81 1010.8
20260902084055 60 0 0.0 6.0 0.00 0.00 0.00 81 1010.7
20260902083554 60 182 1.0 7.0 0.00 0.00 0.00 81 1010.8
20260902083108 60 137 0.0 7.0 0.00 0.00 0.00 81 1010.8
20260902082555 60 210 1.0 7.0 0.00 0.00 0.00 81 1010.7
20260902082055 60 0 1.0 5.0 0.00 0.00 0.00 81 1010.7
20260902081605 60 196 2.0 5.0 0.00 0.00 0.00 81 1010.7
20260902081056 60 143 2.0 7.0 0.00 0.00 0.00 81 1010.7
20260902080556 60 135 2.0 7.0 0.00 0.00 0.00 81 1010.7
20260902075555 61 0 0.0 4.0 0.00 0.00 0.00 80 1010.6
20260902075059 61 144 0.0 2.0 0.00 0.00 0.00 79 1010.7
20260902074611 61 146 0.0 2.0 0.00 0.00 0.00 79 1010.7
20260902074055 61 123 0.0 2.0 0.00 0.00 0.00 79 1010.8
20260902073555 61 0 0.0 5.0 0.00 0.00 0.00 79 1010.7
20260902073100 61 0 0.0 6.0 0.00 0.00 0.00 79 1010.7
20260902072557 61 194 1.0 7.0 0.00 0.00 0.00 79 1010.9
20260902072055 61 222 0.0 7.0 0.00 0.00 0.00 78 1010.9
20260902071600 62 194 2.0 7.0 0.00 0.00 0.00 78 1010.9
20260902071055 62 137 1.0 7.0 0.00 0.00 0.00 78 1011.0
20260902070554 62 217 1.0 10.0 0.00 0.00 0.00 77 1011.1
20260902070104 62 190 2.0 11.0 0.00 0.00 0.00 77 1011.1
20260902065555 62 175 4.0 11.0 0.00 0.00 0.00 77 1011.1
20260902065055 62 184 2.0 5.0 0.00 0.00 0.00 77 1011.1
20260902064559 62 128 0.0 7.0 0.00 0.00 0.00 77 1011.1
20260902064055 62 201 2.0 9.0 0.00 0.00 0.00 77 1011.3
20260902063555 62 173 1.0 9.0 0.00 0.00 0.00 76 1011.3
20260902063115 62 202 1.0 6.0 0.00 0.00 0.00 76 1011.3
20260902062554 62 196 2.0 7.0 0.00 0.00 0.00 76 1011.3
20260902062055 62 178 1.0 7.0 0.00 0.00 0.00 76 1011.2
20260902061559 62 195 2.0 8.0 0.00 0.00 0.00 75 1011.2
20260902061056 62 209 3.0 9.0 0.00 0.00 0.00 75 1011.2
20260902060556 62 188 2.0 9.0 0.00 0.00 0.00 75 1011.2
20260902060122 62 199 1.0 5.0 0.00 0.00 0.00 74 1011.3
20260902055555 62 0 1.0 5.0 0.00 0.00 0.00 74 1011.4
20260902055054 63 0 1.0 6.0 0.00 0.00 0.00 74 1011.5
20260902054609 63 163 1.0 6.0 0.00 0.00 0.00 74 1011.4
20260902054054 63 156 1.0 8.0 0.00 0.00 0.00 74 1011.5
20260902053554 63 0 1.0 8.0 0.00 0.00 0.00 74 1011.6
20260902053058 63 0 2.0 8.0 0.00 0.00 0.00 74 1011.5
20260902052555 63 211 0.0 6.0 0.00 0.00 0.00 74 1011.5
20260902052055 63 178 1.0 6.0 0.00 0.00 0.00 74 1011.5
20260902051608 63 136 0.0 6.0 0.00 0.00 0.00 74 1011.5
20260902051056 63 271 1.0 5.0 0.00 0.00 0.00 73 1011.5
20260902050556 63 193 1.0 6.0 0.00 0.00 0.00 74 1011.6
20260902045555 63 0 1.0 4.0 0.00 0.00 0.00 74 1011.6
20260902045055 63 0 1.0 5.0 0.00 0.00 0.00 74 1011.6
20260902044610 63 0 1.0 5.0 0.00 0.00 0.00 74 1011.5
20260902044056 63 0 0.0 7.0 0.00 0.00 0.00 74 1011.5
20260902043555 63 236 1.0 7.0 0.00 0.00 0.00 74 1011.5
20260902043114 63 202 1.0 7.0 0.00 0.00 0.00 74 1011.4
20260902042557 63 165 1.0 7.0 0.00 0.00 0.00 74 1011.5
20260902042055 63 229 1.0 5.0 0.00 0.00 0.00 73 1011.4
20260902041606 63 177 0.0 7.0 0.00 0.00 0.00 73 1011.4
20260902041055 63 240 2.0 9.0 0.00 0.00 0.00 73 1011.4
20260902040555 63 291 1.0 9.0 0.00 0.00 0.00 73 1011.5
20260902040108 63 199 2.0 5.0 0.00 0.00 0.00 73 1011.4
20260902035554 64 169 0.0 5.0 0.00 0.00 0.00 73 1011.3
20260902035059 64 0 0.0 5.0 0.00 0.00 0.00 73 1011.4
20260902034614 64 266 1.0 5.0 0.00 0.00 0.00 73 1011.3
20260902034054 64 0 1.0 7.0 0.00 0.00 0.00 72 1011.3
20260902033556 64 240 1.0 7.0 0.00 0.00 0.00 72 1011.3
20260902033104 64 187 1.0 7.0 0.00 0.00 0.00 72 1011.3
20260902032556 64 269 1.0 7.0 0.00 0.00 0.00 71 1011.2
20260902032055 64 278 2.0 7.0 0.00 0.00 0.00 71 1011.2
20260902031604 64 287 1.0 4.0 0.00 0.00 0.00 71 1011.2
20260902031100 64 198 0.0 7.0 0.00 0.00 0.00 71 1011.2
20260902030555 64 159 2.0 7.0 0.00 0.00 0.00 71 1011.3
20260902030105 64 270 1.0 7.0 0.00 0.00 0.00 71 1011.3
20260902025557 64 252 2.0 7.0 0.00 0.00 0.00 71 1011.3
20260902025100 65 360 0.0 4.0 0.00 0.00 0.00 70 1011.2
20260902024558 65 244 1.0 4.0 0.00 0.00 0.00 70 1011.3
20260902024056 65 236 1.0 5.0 0.00 0.00 0.00 70 1011.2
20260902023556 65 232 2.0 6.0 0.00 0.00 0.00 69 1011.2
20260902023103 65 242 2.0 6.0 0.00 0.00 0.00 69 1011.1
20260902022554 65 267 1.0 6.0 0.00 0.00 0.00 69 1011.1
20260902022053 65 301 2.0 7.0 0.00 0.00 0.00 69 1011.2
20260902021607 65 0 2.0 9.0 0.00 0.00 0.00 69 1011.1
20260902021058 66 273 3.0 9.0 0.00 0.00 0.00 68 1011.1
20260902020556 66 311 3.0 9.0 0.00 0.00 0.00 68 1011.1
20260902020059 66 265 2.0 7.0 0.00 0.00 0.00 68 1011.0
20260902015554 66 245 0.0 8.0 0.00 0.00 0.00 68 1011.0
20260902015058 66 251 1.0 8.0 0.00 0.00 0.00 68 1011.0
20260902014600 67 157 1.0 6.0 0.00 0.00 0.00 67 1010.9
20260902014057 67 225 2.0 7.0 0.00 0.00 0.00 67 1010.9
20260902013553 67 303 1.0 8.0 0.00 0.00 0.00 67 1011.0
20260902013059 67 159 2.0 8.0 0.00 0.00 0.00 67 1010.8
20260902012553 67 0 1.0 12.0 0.00 0.00 0.00 67 1010.8
20260902012053 67 188 2.0 12.0 0.00 0.00 0.00 66 1010.8
20260902011601 67 0 2.0 10.0 0.00 0.00 0.00 66 1010.8
20260902011053 67 264 3.0 10.0 0.00 0.00 0.00 65 1010.9
20260902010553 67 260 4.0 10.0 0.00 0.00 0.00 64 1010.8
20260902010101 67 250 4.0 10.0 0.00 0.00 0.00 64 1010.6
20260902005556 67 276 1.0 9.0 0.00 0.00 0.00 64 1010.6
20260902005055 67 223 3.0 9.0 0.00 0.00 0.00 64 1010.7
20260902004605 67 313 1.0 9.0 0.00 0.00 0.00 64 1010.6
20260902004055 68 281 4.0 9.0 0.00 0.00 0.00 63 1010.6
20260902003552 68 261 3.0 11.0 0.00 0.00 0.00 63 1010.7
20260902003134 68 259 1.0 11.0 0.00 0.00 0.00 63 1010.6
20260902002553 68 206 4.0 11.0 0.00 0.00 0.00 62 1010.6
20260902002053 69 230 3.0 11.0 0.00 0.00 0.00 62 1010.6
20260902001606 70 235 2.0 12.0 0.00 0.00 0.00 61 1010.6
20260902001055 70 305 5.0 12.0 0.00 0.00 0.00 60 1010.4
20260902000555 71 249 3.0 13.0 0.00 0.00 0.00 59 1010.4
20260902000104 71 196 2.0 13.0 0.00 0.00 0.00 60 1010.4
20260901235555 71 215 4.0 11.0 0.00 0.00 0.00 59 1010.6
20260901235054 71 201 5.0 11.0 0.00 0.00 0.00 60 1010.4
20260901234603 70 320 3.0 10.0 0.00 0.00 0.00 60 1010.6
20260901234055 70 297 4.0 10.0 0.00 0.00 0.00 61 1010.6
20260901233555 70 198 3.0 10.0 0.00 0.00 0.00 61 1010.5
20260901233102 70 315 4.0 10.0 0.00 0.00 0.00 61 1010.5
20260901232555 70 202 3.0 8.0 0.00 0.00 0.00 62 1010.6
20260901232055 70 252 1.0 9.0 0.00 0.00 0.00 62 1010.7
20260901231605 70 265 3.0 10.0 0.00 0.00 0.00 62 1010.6
20260901231055 70 167 2.0 10.0 0.00 0.00 0.00 63 1010.6
20260901230556 70 289 5.0 10.0 0.00 0.00 0.00 62 1010.6
20260901230100 70 246 2.0 8.0 0.00 0.00 0.00 62 1010.7
20260901225555 70 236 2.0 8.0 0.00 0.00 0.00 62 1010.7
20260901225055 70 0 2.0 10.0 0.00 0.00 0.00 63 1010.7
20260901224606 69 0 2.0 11.0 0.00 0.00 0.00 63 1010.8
20260901224058 69 174 4.0 11.0 0.00 0.00 0.00 61 1010.8
20260901223555 69 171 0.0 12.0 0.00 0.00 0.00 62 1010.8
20260901223103 69 284 4.0 13.0 0.00 0.00 0.00 61 1010.7
20260901222556 70 222 3.0 13.0 0.00 0.00 0.00 61 1010.8
20260901222055 70 234 3.0 12.0 0.00 0.00 0.00 61 1010.9
20260901221619 70 320 4.0 12.0 0.00 0.00 0.00 61 1010.8
20260901221056 70 259 2.0 10.0 0.00 0.00 0.00 62 1010.8